QPF
0.00 0.00 0.00 0.00 0.00 0.00 0.00 0.00 0.00 0.00 0.00 0.00 0.00 0.00 0.00 0.00 0.00 0.01 0.07 0.06 0.02 0.01 0.00 0.00 0.00 0.00 0.00 0.00 0.00 0.01 0.02 0.03 0.00 0.00 0.00 0.00 0.00 0.00 0.00 0.00 0.00 0.00 0.00
0.00 0.00 0.00 0.00 0.00 0.00 0.00 0.00 0.00 0.00 0.00 0.00 0.00 0.00 0.00 0.00 0.00 0.00 0.00 0.00 0.03 0.02 0.04 0.02 0.03 0.05 0.01 0.01 0.01 0.00 0.00 0.01 0.01 0.00 0.00 0.00 0.00 0.00 0.00 0.00 0.00 0.00 0.00
0.00 0.00 0.00 0.00 0.00 0.00 0.00 0.00 0.00 0.00 0.00 0.00 0.00 0.00 0.00 0.00 0.00 0.00 0.02 0.09 0.08 0.01 0.01 0.03 0.03 0.06 0.01 0.00 0.03 0.02 0.01 0.03 0.03 0.00 0.00 0.00 0.00 0.00 0.00 0.00 0.00 0.00 0.00
0.00 0.00 0.00 0.00 0.00 0.00 0.00 0.00 0.00 0.00 0.00 0.00 0.00 0.00 0.03 0.04 0.04 0.06 0.03 0.03 0.01 0.00 0.00 0.00 0.00 0.00 0.00 0.00 0.00 0.01 0.02 0.02 0.02 0.00 0.00 0.00 0.00 0.00 0.00 0.00 0.00 0.00 0.00
0.00 0.00 0.00 0.00 0.00 0.00 0.00 0.00 0.00 0.00 0.00 0.00 0.00 0.00 0.00 0.01 0.00 0.02 0.01 0.00 0.02 0.01 0.00 0.00 0.00 0.00 0.00 0.00 0.00 0.00 0.04 0.04 0.00 0.00 0.00 0.00 0.00 0.01 0.02 0.02 0.05 0.02 0.00
0.00 0.00 0.00 0.00 0.00 0.00 0.00 0.00 0.00 0.00 0.00 0.00 0.00 0.00 0.00 0.00 0.00 0.00 0.04 0.04 0.02 0.00 0.00 0.00 0.00 0.00 0.00 0.00 0.00 0.00 0.01 0.05 0.07 0.05 0.02 0.01 0.02 0.05 0.07 0.08 0.09 0.10 0.04
0.00 0.00 0.00 0.00 0.00 0.00 0.00 0.00 0.00 0.00 0.00 0.00 0.00 0.00 0.00 0.00 0.00 0.00 0.00 0.01 0.02 0.00 0.00 0.00 0.02 0.00 0.00 0.00 0.06 0.00 0.00 0.00 0.00 0.03 0.03 0.02 0.06 0.08 0.07 0.06 0.05 0.04 0.02
0.00 0.00 0.00 0.00 0.00 0.00 0.00 0.00 0.00 0.00 0.00 0.00 0.00 0.00 0.00 0.00 0.00 0.00 0.00 0.00 0.00 0.00 0.00 0.00 0.01 0.00 0.00 0.05 0.11 0.06 0.07 0.04 0.02 0.00 0.00 0.00 0.01 0.01 0.00 0.00 0.00 0.00 0.00
0.00 0.00 0.00 0.00 0.00 0.00 0.00 0.00 0.00 0.00 0.00 0.00 0.00 0.00 0.00 0.00 0.00 0.00 0.00 0.00 0.00 0.00 0.00 0.00 0.00 0.00 0.00 0.06 0.04 0.03 0.08 0.07 0.05 0.00 0.00 0.00 0.00 0.00 0.00 0.00 0.00 0.00 0.00
0.00 0.00 0.00 0.00 0.00 0.01 0.00 0.00 0.00 0.00 0.00 0.00 0.00 0.00 0.00 0.01 0.02 0.01 0.08 0.00 0.00 0.00 0.00 0.00 0.01 0.02 0.00 0.01 0.02 0.01 0.07 0.03 0.01 0.00 0.00 0.00 0.00 0.00 0.00 0.00 0.00 0.00 0.01
0.01 0.00 0.01 0.00 0.00 0.00 0.00 0.00 0.00 0.00 0.00 0.00 0.00 0.01 0.01 0.02 0.07 0.16 0.16 0.02 0.10 0.09 0.04 0.01 0.00 0.00 0.00 0.00 0.00 0.04 0.05 0.01 0.00 0.00 0.00 0.00 0.00 0.00 0.00 0.00 0.00 0.00 0.00
0.02 0.02 0.03 0.07 0.04 0.01 0.00 0.00 0.00 0.17 0.23 0.06 0.03 0.07 0.02 0.12 0.15 0.17 0.06 0.07 0.20 0.07 0.02 0.00 0.00 0.00 0.00 0.00 0.00 0.00 0.00 0.00 0.00 0.00 0.00 0.00 0.00 0.00 0.00 0.00 0.00 0.00 0.00
0.12 0.06 0.04 0.11 0.10 0.04 0.00 0.00 0.00 0.02 0.35 0.66 0.34 0.18 0.14 0.14 0.08 0.01 0.01 0.01 0.02 0.05 0.02 0.00 0.00 0.00 0.00 0.00 0.00 0.00 0.00 0.00 0.00 0.00 0.00 0.00 0.00 0.00 0.00 0.00 0.00 0.00 0.00
0.00 0.03 0.03 0.10 0.10 0.06 0.03 0.04 0.04 0.04 0.11 0.21 0.43 0.24 0.16 0.02 0.01 0.00 0.02 0.02 0.01 0.00 0.00 0.00 0.00 0.00 0.00 0.00 0.00 0.00 0.00 0.00 0.00 0.00 0.00 0.00 0.00 0.00 0.00 0.00 0.00 0.00 0.00
0.00 0.00 0.01 0.13 0.42 0.33 0.25 0.26 0.33 0.46 0.33 0.19 0.18 0.11 0.05 0.00 0.00 0.00 0.01 0.00 0.00 0.00 0.00 0.00 0.00 0.00 0.00 0.00 0.00 0.00 0.00 0.00 0.00 0.00 0.00 0.00 0.00 0.00 0.00 0.00 0.00 0.00 0.00
0.00 0.00 0.00 0.03 0.26 0.41 0.26 0.27 0.26 0.27 0.09 0.09 0.05 0.01 0.00 0.00 0.00 0.00 0.00 0.00 0.00 0.00 0.00 0.00 0.00 0.00 0.00 0.00 0.00 0.00 0.00 0.00 0.00 0.00 0.00 0.00 0.00 0.00 0.00 0.00 0.00 0.00 0.00
0.00 0.00 0.00 0.01 0.01 0.09 0.15 0.11 0.11 0.11 0.04 0.01 0.00 0.00 0.00 0.00 0.00 0.00 0.00 0.00 0.00 0.00 0.00 0.00 0.00 0.00 0.00 0.00 0.00 0.00 0.00 0.00 0.00 0.00 0.00 0.00 0.00 0.00 0.00 0.00 0.00 0.00 0.00
0.00 0.00 0.00 0.00 0.00 0.03 0.04 0.08 0.09 0.06 0.05 0.02 0.00 0.01 0.00 0.00 0.00 0.00 0.00 0.00 0.00 0.00 0.00 0.00 0.00 0.00 0.00 0.00 0.00 0.00 0.00 0.00 0.00 0.00 0.00 0.00 0.00 0.00 0.00 0.00 0.00 0.00 0.00
0.00 0.00 0.00 0.00 0.00 0.00 0.03 0.04 0.02 0.01 0.00 0.00 0.00 0.00 0.00 0.00 0.00 0.00 0.00 0.00 0.00 0.00 0.00 0.00 0.00 0.00 0.00 0.00 0.00 0.00 0.00 0.00 0.00 0.00 0.00 0.00 0.00 0.00 0.00 0.00 0.00 0.00 0.00
0.00 0.00 0.00 0.00 0.00 0.00 0.01 0.02 0.03 0.02 0.01 0.00 0.00 0.00 0.00 0.00 0.00 0.00 0.00 0.00 0.00 0.00 0.00 0.00 0.00 0.00 0.00 0.00 0.00 0.00 0.00 0.00 0.00 0.00 0.00 0.00 0.00 0.00 0.00 0.00 0.00 0.00 0.00
0.00 0.00 0.00 0.00 0.00 0.01 0.00 0.00 0.01 0.01 0.01 0.00 0.00 0.00 0.00 0.00 0.00 0.00 0.00 0.00 0.00 0.00 0.00 0.00 0.00 0.00 0.00 0.00 0.00 0.00 0.00 0.00 0.00 0.00 0.00 0.00 0.00 0.00 0.00 0.00 0.00 0.00 0.00
0.00 0.00 0.00 0.00 0.00 0.01 0.01 0.01 0.00 0.00 0.00 0.00 0.00 0.00 0.00 0.00 0.00 0.00 0.00 0.00 0.00 0.00 0.00 0.00 0.00 0.00 0.00 0.00 0.00 0.01 0.01 0.01 0.00 0.00 0.00 0.00 0.00 0.00 0.00 0.00 0.00 0.00 0.00
0.00 0.00 0.00 0.00 0.00 0.01 0.01 0.03 0.01 0.01 0.01 0.01 0.00 0.00 0.00 0.00 0.00 0.00 0.00 0.00 0.00 0.00 0.00 0.00 0.00 0.00 0.00 0.00 0.01 0.01 0.01 0.00 0.00 0.00 0.00 0.00 0.00 0.00 0.00 0.00 0.00 0.00 0.00
0.01 0.00 0.00 0.00 0.01 0.00 0.00 0.00 0.01 0.02 0.03 0.00 0.00 0.00 0.00 0.00 0.00 0.00 0.00 0.00 0.00 0.00 0.00 0.00 0.00 0.01 0.02 0.02 0.02 0.00 0.00 0.00 0.00 0.00 0.00 0.00 0.00 0.00 0.00 0.00 0.00 0.00 0.00
0.01 0.00 0.00 0.01 0.00 0.00 0.00 0.01 0.01 0.03 0.02 0.00 0.00 0.00 0.00 0.00 0.00 0.00 0.00 0.00 0.00 0.00 0.00 0.00 0.00 0.00 0.02 0.02 0.00 0.01 0.00 0.00 0.01 0.01 0.01 0.01 0.00 0.00 0.00 0.00 0.00 0.00 0.00
0.02 0.02 0.01 0.03 0.03 0.01 0.02 0.03 0.04 0.07 0.06 0.02 0.00 0.00 0.00 0.00 0.00 0.00 0.00 0.00 0.00 0.00 0.00 0.00 0.00 0.00 0.02 0.03 0.01 0.01 0.00 0.00 0.00 0.00 0.00 0.00 0.00 0.01 0.01 0.00 0.00 0.00 0.00
MSLP
1008.89 1009.62 1010.44 1011.22 1011.79 1012.55 1012.94 1013.42 1013.80 1014.02 1014.41 1014.81 1015.17 1015.39 1015.72 1016.00 1016.30 1016.53 1016.78 1016.71 1017.09 1017.14 1017.20 1017.15 1017.42 1017.64 1017.37 1016.87 1016.72 1016.63 1016.93 1017.05 1016.63 1015.99 1015.41 1015.45 1016.17 1016.34 1015.95 1015.83 1015.80 1015.61 1015.33
1007.87 1008.89 1009.71 1010.61 1011.29 1011.79 1012.31 1012.77 1013.24 1013.62 1013.98 1014.46 1014.74 1014.95 1015.12 1015.37 1015.67 1015.86 1016.06 1016.06 1016.46 1016.61 1016.70 1016.91 1016.86 1017.06 1017.15 1017.17 1016.89 1017.00 1016.68 1016.68 1016.90 1016.32 1015.94 1015.74 1015.67 1015.66 1015.74 1015.80 1015.50 1014.91 1014.63
1007.38 1008.08 1008.77 1009.46 1010.21 1010.68 1011.42 1012.00 1012.59 1013.03 1013.45 1013.74 1014.12 1014.42 1014.65 1014.82 1015.08 1015.37 1015.47 1015.58 1015.77 1015.94 1015.98 1016.18 1016.26 1016.56 1016.65 1016.42 1016.40 1016.53 1016.05 1016.34 1016.57 1016.43 1015.76 1015.26 1014.99 1014.97 1015.06 1015.17 1015.15 1014.68 1014.56
1007.04 1007.53 1008.09 1008.62 1009.10 1009.71 1010.47 1011.37 1011.86 1012.40 1012.74 1013.07 1013.39 1013.74 1014.14 1014.53 1014.76 1014.84 1014.97 1015.16 1015.08 1015.11 1015.29 1015.44 1015.57 1015.65 1015.81 1016.07 1016.12 1016.03 1015.82 1016.02 1015.78 1015.77 1015.16 1014.59 1014.25 1014.15 1014.38 1014.51 1014.27 1013.92 1013.51
1006.83 1007.27 1007.64 1008.26 1008.79 1009.33 1009.86 1010.51 1011.25 1011.91 1012.27 1012.60 1012.98 1013.23 1013.53 1013.74 1013.84 1014.31 1014.52 1014.49 1014.49 1014.56 1014.70 1014.93 1014.96 1015.02 1015.25 1015.45 1015.46 1015.31 1015.35 1015.57 1015.17 1014.81 1014.29 1013.98 1013.71 1013.64 1014.17 1014.66 1014.74 1014.11 1013.74
1006.58 1007.00 1007.55 1008.04 1008.38 1008.72 1009.15 1009.86 1010.37 1010.92 1011.43 1011.92 1012.32 1012.73 1013.05 1013.10 1013.04 1013.55 1014.03 1014.16 1014.21 1014.19 1014.30 1014.49 1014.53 1014.61 1014.77 1015.01 1015.29 1015.41 1015.47 1015.51 1015.53 1015.41 1014.65 1014.53 1014.61 1014.85 1014.87 1014.90 1014.87 1014.71 1014.08
1006.36 1006.70 1006.98 1007.54 1007.70 1007.99 1008.56 1009.12 1009.46 1009.84 1010.48 1011.06 1011.53 1011.99 1012.36 1012.70 1012.92 1013.30 1013.69 1013.92 1013.84 1013.74 1013.94 1014.22 1014.29 1014.04 1014.48 1014.31 1014.54 1014.85 1015.13 1015.22 1015.43 1015.27 1015.23 1014.88 1014.99 1015.06 1015.18 1015.07 1014.92 1014.83 1014.27
1005.83 1006.27 1006.60 1007.02 1007.51 1007.79 1007.99 1008.34 1008.64 1009.32 1009.71 1010.21 1010.77 1011.24 1011.69 1012.04 1012.50 1012.90 1013.24 1013.49 1013.38 1013.32 1013.69 1014.26 1014.35 1014.42 1014.71 1014.45 1014.20 1014.24 1014.21 1014.54 1014.88 1014.95 1015.18 1015.26 1015.50 1015.30 1015.33 1015.21 1015.12 1014.90 1014.28
1005.32 1005.68 1006.08 1006.45 1006.95 1007.18 1007.11 1007.20 1007.18 1008.00 1008.74 1009.27 1009.90 1010.52 1010.85 1011.17 1011.74 1012.36 1012.92 1012.89 1012.62 1012.57 1012.86 1013.47 1013.67 1013.95 1014.22 1014.13 1013.90 1013.90 1013.85 1014.19 1015.08 1015.17 1015.50 1015.69 1015.99 1016.13 1015.96 1015.20 1014.25 1014.18 1013.79
1005.22 1005.31 1005.56 1005.78 1006.25 1006.37 1006.75 1007.15 1007.62 1007.80 1007.70 1008.57 1009.01 1009.72 1010.35 1010.54 1011.05 1011.63 1012.25 1012.05 1011.49 1011.48 1011.94 1012.74 1013.49 1013.63 1013.89 1013.87 1013.93 1013.60 1013.55 1013.93 1014.21 1014.57 1015.23 1015.50 1015.32 1015.25 1015.69 1015.15 1014.78 1014.38 1014.58
1005.13 1004.96 1004.95 1005.10 1005.40 1005.64 1006.43 1006.97 1007.30 1007.59 1007.47 1007.90 1008.35 1008.76 1009.37 1009.76 1010.20 1010.80 1011.27 1011.42 1010.76 1011.09 1011.50 1012.30 1012.84 1013.43 1013.44 1013.67 1013.79 1013.33 1013.65 1013.69 1014.04 1013.91 1014.02 1014.30 1014.45 1014.52 1014.68 1015.07 1015.46 1015.46 1015.27
1005.32 1004.71 1004.43 1004.41 1004.52 1004.65 1005.48 1006.26 1006.63 1006.88 1007.37 1007.57 1008.08 1008.19 1008.20 1008.91 1009.42 1010.24 1010.68 1011.00 1010.81 1011.00 1011.08 1011.54 1012.56 1013.34 1013.56 1013.74 1013.80 1013.87 1013.76 1013.73 1013.27 1013.10 1013.16 1013.48 1013.75 1014.43 1014.95 1014.99 1015.44 1015.33 1015.26
1005.26 1004.78 1003.86 1003.61 1003.59 1003.76 1004.42 1005.55 1005.99 1006.64 1007.01 1007.59 1008.03 1008.74 1008.33 1008.94 1009.57 1010.10 1010.44 1010.78 1011.11 1011.31 1011.05 1011.58 1012.75 1013.49 1013.75 1013.90 1013.87 1014.10 1013.88 1013.43 1012.75 1012.65 1012.96 1013.36 1014.01 1014.57 1015.03 1015.11 1015.15 1014.94 1014.90
1004.89 1004.28 1003.37 1002.91 1003.67 1003.85 1003.10 1004.13 1004.74 1005.35 1006.65 1007.25 1007.61 1007.03 1008.66 1008.59 1008.92 1009.89 1010.52 1010.80 1011.02 1011.13 1011.63 1012.57 1012.98 1013.22 1013.44 1013.21 1013.94 1014.05 1013.27 1012.65 1012.43 1012.39 1012.87 1013.32 1013.83 1014.27 1013.89 1013.88 1013.57 1013.67 1013.44
1004.41 1003.44 1003.35 1003.65 1002.15 1003.27 1004.72 1003.64 1004.17 1004.20 1004.95 1005.85 1006.89 1007.02 1007.55 1007.61 1007.73 1008.44 1009.22 1009.80 1009.98 1010.51 1011.94 1012.47 1012.77 1012.71 1012.78 1012.71 1012.67 1012.71 1012.66 1012.93 1012.65 1012.71 1012.78 1012.98 1013.10 1013.35 1013.41 1013.62 1013.43 1013.29 1013.20
1003.82 1002.98 1002.43 1003.81 1004.01 1004.19 1003.85 1004.07 1005.03 1005.35 1005.44 1005.47 1005.72 1006.02 1006.52 1007.02 1007.48 1008.47 1008.86 1009.07 1009.63 1010.58 1011.37 1011.59 1011.89 1011.63 1011.63 1011.76 1011.85 1012.06 1012.22 1012.45 1012.15 1012.36 1012.34 1012.52 1012.69 1012.87 1012.92 1013.45 1013.45 1013.28 1012.86
1003.46 1003.01 1002.39 1003.26 1003.64 1003.61 1003.00 1003.20 1004.60 1006.33 1006.79 1006.21 1007.23 1005.13 1005.28 1006.40 1007.17 1008.17 1009.03 1009.68 1010.01 1010.44 1010.03 1010.91 1010.90 1010.56 1010.71 1010.97 1011.05 1011.19 1011.37 1011.78 1012.05 1012.20 1012.20 1012.32 1012.49 1012.61 1012.99 1012.61 1012.70 1012.66 1012.42
1003.13 1002.86 1002.67 1003.13 1003.53 1003.04 1003.47 1003.68 1003.75 1004.45 1005.47 1006.10 1007.49 1007.91 1006.78 1006.62 1007.40 1008.17 1009.10 1010.21 1010.75 1010.47 1009.01 1009.08 1009.38 1009.55 1009.69 1009.90 1010.08 1010.28 1010.64 1011.23 1011.75 1011.81 1011.87 1011.92 1012.13 1012.32 1012.29 1012.20 1012.08 1012.06 1011.95
1002.50 1001.91 1001.73 1002.04 1002.41 1002.85 1003.22 1003.24 1003.52 1003.98 1004.04 1005.35 1007.18 1007.96 1008.32 1008.01 1008.19 1008.60 1008.70 1008.29 1009.15 1009.18 1008.64 1008.08 1008.38 1008.63 1008.95 1009.19 1009.55 1009.94 1010.62 1011.00 1011.34 1011.52 1011.73 1011.68 1011.78 1012.34 1012.05 1011.76 1011.39 1011.88 1012.23
1001.57 1001.47 1001.53 1001.23 1001.76 1002.11 1002.46 1002.32 1002.72 1003.46 1003.58 1004.26 1005.76 1006.38 1007.73 1008.26 1008.57 1009.02 1008.46 1007.40 1007.79 1007.96 1007.89 1007.75 1007.76 1008.04 1008.27 1008.97 1009.68 1010.23 1010.61 1010.91 1011.10 1011.11 1010.92 1010.92 1011.24 1011.39 1011.52 1011.76 1011.77 1011.26 1011.41
1000.49 1000.20 1000.67 1000.86 1001.05 1001.31 1001.70 1001.75 1002.31 1002.67 1002.88 1002.89 1003.89 1004.69 1005.97 1006.33 1006.76 1007.29 1007.57 1007.03 1007.20 1007.11 1007.33 1007.67 1007.85 1008.44 1008.75 1009.05 1009.38 1009.75 1010.02 1010.21 1010.42 1010.38 1010.35 1010.67 1010.88 1010.78 1011.06 1011.02 1011.04 1011.23 1010.99
1000.03 999.56 999.50 999.80 1000.01 1000.64 1000.68 1000.77 1001.33 1001.36 1001.54 1001.57 1002.16 1004.31 1005.38 1005.59 1005.35 1005.77 1006.16 1006.40 1006.51 1006.60 1007.06 1007.67 1007.47 1007.38 1008.05 1008.73 1009.02 1009.21 1009.34 1009.49 1009.21 1009.33 1009.76 1010.07 1010.32 1010.41 1010.43 1010.37 1010.41 1010.46 1010.56
999.30 999.00 998.97 999.67 1000.35 1000.09 1000.48 1000.75 1000.75 1000.77 1000.82 1000.79 1001.22 1002.94 1004.27 1004.40 1003.79 1004.40 1005.11 1005.65 1006.21 1006.49 1006.69 1006.87 1007.13 1007.11 1007.52 1008.02 1008.30 1008.48 1008.58 1008.58 1008.55 1008.99 1009.13 1009.31 1009.35 1009.47 1009.55 1009.64 1009.71 1009.79 1009.87
998.86 998.82 998.39 998.77 999.57 1000.02 1000.05 1000.23 1000.89 1001.09 1000.95 1000.41 1000.67 1001.39 1002.90 1003.29 1002.68 1002.99 1003.73 1004.54 1005.06 1005.39 1005.82 1006.10 1006.40 1006.99 1007.19 1007.51 1007.55 1007.88 1007.96 1007.72 1008.01 1008.10 1008.70 1008.74 1008.71 1008.94 1009.19 1008.97 1008.82 1008.82 1008.99
998.27 998.51 998.36 998.40 998.66 999.02 999.19 999.74 999.92 999.97 1000.28 1000.04 999.73 1000.27 1001.70 1002.28 1002.50 1002.92 1003.67 1004.06 1004.47 1004.79 1005.11 1005.51 1005.70 1005.90 1006.53 1007.27 1007.13 1007.27 1008.28 1008.10 1008.15 1008.54 1008.13 1008.41 1008.37 1008.25 1008.14 1007.82 1007.99 1008.22 1008.37
997.33 997.65 998.02 998.37 998.81 998.71 998.66 999.03 999.43 999.45 999.60 999.80 998.98 999.70 1000.79 1001.37 1001.89 1002.38 1002.90 1003.32 1003.69 1004.07 1004.32 1005.02 1005.30 1005.65 1005.77 1006.39 1008.24 1008.79 1009.00 1008.97 1008.81 1009.27 1008.86 1008.27 1008.06 1007.88 1007.95 1007.93 1007.85 1007.96 1007.91
Thickness
5798 5794 5788 5783 5780 5776 5773 5771 5769 5770 5769 5766 5765 5766 5766 5765 5765 5764 5763 5767 5764 5765 5767 5767 5766 5767 5768 5773 5776 5776 5771 5769 5764 5774 5785 5788 5780 5780 5783 5783 5783 5785 5786
5804 5796 5790 5785 5780 5777 5774 5773 5771 5769 5769 5767 5766 5767 5768 5768 5767 5767 5766 5769 5765 5765 5766 5764 5765 5767 5766 5766 5769 5767 5769 5770 5764 5762 5773 5777 5780 5782 5781 5780 5780 5785 5786
5805 5799 5794 5789 5783 5780 5776 5775 5773 5771 5768 5769 5767 5766 5767 5768 5768 5768 5768 5768 5768 5767 5768 5767 5767 5766 5764 5768 5769 5767 5771 5769 5766 5763 5766 5778 5781 5783 5782 5781 5779 5781 5781
5805 5800 5795 5791 5788 5785 5781 5775 5773 5771 5769 5768 5768 5767 5767 5765 5766 5767 5768 5767 5770 5772 5772 5772 5771 5771 5769 5768 5768 5768 5770 5766 5768 5766 5770 5775 5779 5783 5781 5775 5775 5781 5781
5801 5797 5794 5789 5787 5784 5781 5778 5773 5769 5767 5767 5765 5766 5766 5767 5768 5766 5767 5768 5769 5770 5771 5771 5773 5774 5772 5771 5771 5771 5770 5766 5770 5770 5772 5775 5776 5776 5769 5768 5763 5770 5772
5798 5793 5790 5788 5786 5785 5783 5779 5777 5774 5771 5769 5765 5762 5761 5765 5770 5768 5767 5766 5766 5767 5766 5768 5770 5770 5770 5769 5767 5766 5766 5764 5761 5758 5765 5762 5762 5761 5762 5759 5758 5753 5752
5792 5792 5790 5786 5787 5785 5782 5780 5778 5776 5774 5771 5768 5764 5762 5763 5764 5764 5764 5764 5764 5765 5764 5763 5764 5769 5766 5769 5766 5764 5762 5761 5758 5759 5755 5758 5756 5756 5753 5751 5752 5750 5750
5788 5788 5788 5785 5781 5782 5782 5780 5778 5775 5774 5771 5768 5765 5762 5763 5761 5761 5760 5762 5762 5763 5761 5757 5756 5756 5756 5760 5764 5762 5764 5761 5758 5758 5753 5753 5753 5752 5748 5747 5746 5746 5749
5783 5783 5785 5784 5782 5781 5782 5782 5783 5779 5774 5773 5770 5765 5763 5764 5761 5758 5756 5759 5762 5762 5763 5759 5757 5754 5755 5755 5759 5760 5759 5756 5750 5751 5749 5747 5743 5740 5739 5742 5746 5743 5741
5775 5778 5781 5781 5781 5780 5779 5775 5772 5771 5773 5770 5769 5766 5759 5761 5759 5755 5752 5758 5762 5764 5764 5760 5752 5754 5751 5753 5756 5758 5754 5752 5752 5749 5745 5742 5740 5738 5733 5734 5736 5734 5730
5768 5773 5777 5778 5779 5780 5773 5771 5768 5764 5769 5770 5769 5767 5763 5761 5760 5754 5753 5758 5762 5761 5759 5754 5755 5749 5750 5750 5750 5756 5751 5753 5747 5748 5746 5743 5739 5736 5732 5727 5723 5721 5719
5752 5763 5769 5773 5777 5780 5773 5768 5766 5766 5762 5763 5763 5765 5768 5763 5759 5753 5752 5752 5755 5755 5754 5755 5750 5742 5742 5743 5744 5743 5744 5744 5748 5746 5744 5739 5735 5728 5723 5721 5717 5716 5716
5740 5748 5762 5770 5777 5781 5775 5766 5765 5761 5755 5752 5748 5746 5755 5757 5753 5748 5747 5747 5746 5746 5751 5748 5737 5733 5733 5734 5735 5733 5733 5739 5742 5740 5735 5731 5726 5722 5716 5715 5712 5713 5712
5729 5740 5754 5766 5760 5766 5781 5771 5769 5764 5753 5744 5729 5731 5741 5749 5752 5748 5743 5741 5739 5742 5738 5732 5731 5730 5729 5734 5727 5726 5734 5739 5738 5735 5729 5726 5722 5717 5719 5719 5719 5717 5717
5721 5736 5739 5740 5730 5747 5750 5764 5763 5768 5762 5754 5746 5749 5747 5751 5757 5754 5749 5745 5744 5741 5729 5726 5725 5727 5727 5729 5730 5729 5730 5728 5728 5726 5724 5720 5718 5715 5714 5714 5714 5712 5710
5711 5724 5733 5728 5729 5730 5739 5745 5741 5743 5742 5742 5748 5755 5755 5751 5748 5743 5742 5741 5737 5731 5727 5725 5724 5728 5728 5728 5726 5724 5725 5723 5725 5722 5720 5717 5714 5711 5711 5706 5706 5704 5705
5702 5711 5719 5720 5716 5730 5734 5739 5736 5727 5724 5730 5723 5748 5751 5750 5743 5737 5733 5729 5728 5726 5732 5723 5725 5729 5729 5727 5726 5724 5722 5720 5719 5715 5713 5711 5708 5707 5702 5705 5703 5702 5703
5695 5700 5709 5710 5712 5724 5726 5731 5736 5733 5724 5727 5716 5713 5725 5733 5734 5731 5725 5721 5717 5720 5738 5735 5732 5732 5731 5729 5727 5724 5721 5716 5711 5710 5708 5706 5704 5701 5699 5700 5701 5699 5699
5688 5701 5710 5713 5716 5717 5720 5725 5730 5732 5736 5726 5714 5708 5705 5713 5720 5720 5722 5732 5724 5725 5732 5737 5735 5733 5730 5729 5725 5721 5714 5708 5705 5702 5699 5699 5698 5690 5692 5695 5700 5688 5686
5685 5692 5697 5709 5711 5713 5717 5725 5727 5727 5729 5729 5720 5722 5708 5710 5715 5712 5719 5730 5727 5727 5730 5731 5732 5731 5730 5724 5717 5710 5704 5699 5696 5694 5696 5696 5693 5691 5688 5686 5686 5689 5686
5683 5693 5696 5702 5707 5711 5713 5716 5719 5725 5727 5731 5729 5731 5717 5722 5720 5717 5715 5723 5719 5724 5724 5724 5723 5720 5718 5715 5711 5705 5700 5696 5693 5692 5691 5690 5688 5688 5686 5686 5685 5682 5683
5675 5688 5695 5701 5707 5708 5714 5718 5719 5724 5728 5732 5735 5720 5712 5718 5721 5719 5717 5718 5717 5720 5720 5717 5718 5720 5715 5708 5704 5701 5696 5693 5696 5695 5690 5687 5685 5684 5683 5683 5682 5680 5677
5672 5681 5689 5690 5691 5702 5706 5709 5714 5719 5725 5730 5732 5722 5713 5715 5722 5718 5714 5713 5711 5712 5715 5715 5713 5713 5711 5706 5703 5701 5696 5693 5694 5691 5688 5686 5685 5684 5682 5680 5679 5676 5674
5666 5673 5684 5688 5688 5692 5698 5702 5702 5703 5710 5721 5725 5724 5711 5713 5722 5721 5718 5714 5711 5712 5713 5714 5711 5704 5704 5700 5699 5696 5694 5694 5691 5689 5684 5683 5682 5680 5678 5678 5679 5678 5675
5663 5666 5675 5681 5687 5692 5697 5697 5702 5707 5706 5714 5722 5721 5711 5710 5710 5711 5709 5709 5707 5707 5708 5709 5709 5706 5700 5692 5694 5691 5686 5685 5681 5680 5680 5678 5678 5679 5679 5681 5678 5674 5671
5663 5666 5670 5674 5677 5686 5692 5693 5695 5699 5703 5707 5717 5714 5707 5706 5705 5705 5705 5705 5704 5704 5704 5702 5703 5699 5697 5690 5676 5674 5671 5671 5669 5664 5664 5668 5670 5671 5671 5668 5667 5664 5663